Location: Julian California
(33.0790°N, 116.6010°W)
Time: 22:26:02
(UTC-08:00)

Cosmos 962 Rocket - Pass Details

Date: 19 May 2017
Orbit: 950 x 1001 km, 82.9° (Epoch: 20 November)

Event Time Altitude Azimuth Distance (km) Brightness Sun altitude
Rises 22:29:01 0° 357° (N) 3,693 8.4 -28.0°
Reaches altitude 10° 22:31:35 10° 360° (N) 2,734 7.5 -28.3°
Enters shadow 22:37:35 68° 68° (ENE) 1,041 4.5 -29.0°
